Eagle, AK

1:41 PM AKDT on September 19, 2019 (GMT -0800)
Eagle

Weather History for PAEG - August, 2019

Change the Weather History Date:

Saturday, August 24, 2019

  Actual Average (PABN) Record (PABN)
Temperature  
Mean Temperature 48 °F -  
Max Temperature 60 °F 53 °F 64 °F (2004)
Min Temperature 34 °F 42 °F 37 °F (2006)
Degree Days  
Heating Degree Days 17    
Moisture  
Dew Point 41 °F    
Average Humidity 88    
Maximum Humidity 100    
Minimum Humidity 47    
Precipitation  
Precipitation 0.04 in - - ()
Sea Level Pressure  
Sea Level Pressure 29.70 in    
Wind  
Wind Speed 0 mph ()    
Max Wind Speed 4 mph    
Max Gust Speed -    
Visibility 8.3 miles    
Events Fog , Rain    
Averages and records for this station are not official NWS values.
T = Trace of Precipitation, MM = Missing Value Source: Averaged Metar Reports

Daily Weather History Graph

Daily Weather History Graph

Search for Another Location

Airport or City:

Astronomy

Aug. 24, 2019 Rise Set
Actual Time 5:39 AM AKDT 9:11 PM AKDT
Civil Twilight 4:40 AM AKDT 10:10 PM AKDT
Nautical Twilight 3:02 AM AKDT 11:44 PM AKDT
Astronomical Twilight Sun does not set Sun does not set
Moon 10:59 PM AKDT (8/24) 5:57 PM AKDT (8/24)
Length of Visible Light 17h 30m
Length of Day
15h 31m
Last Quarter, 37% of the Moon is Illuminated
Aug 24
Last Quarter
Aug 30
New
Sep 5
First Quarter
Sep 13
Full
Sep 21
Last Quarter

Hourly Weather History & Observations

Time (AKDT) Temp. Windchill Dew Point Humidity Pressure Visibility Wind Dir Wind Speed Gust Speed Precip Events Conditions
12:34 AM 41.0 °F 39.0 °F 39.9 °F 96% 29.60 in 10.0 mi South 3.5 mph - N/A   Mostly Cloudy
12:53 AM 41.0 °F - 39.9 °F 96% 29.63 in 8.0 mi Calm Calm - 0.00 in Rain Light Rain
1:53 AM 42.1 °F - 41.0 °F 96% 29.64 in 10.0 mi Calm Calm - 0.01 in   Overcast
2:35 AM 42.1 °F - 41.0 °F 96% 29.63 in 10.0 mi Calm Calm - N/A   Overcast
2:44 AM 41.0 °F - 41.0 °F 100% 29.63 in 10.0 mi Calm Calm - N/A   Overcast
2:53 AM 41.0 °F - 41.0 °F 100% 29.65 in 10.0 mi Calm Calm - N/A   Overcast
3:38 AM 41.0 °F - 39.9 °F 96% 29.64 in 10.0 mi Calm Calm - N/A   Overcast
3:45 AM 41.0 °F - 39.9 °F 96% 29.64 in 10.0 mi Calm Calm - N/A   Overcast
3:53 AM 41.0 °F - 39.9 °F 96% 29.66 in 10.0 mi Calm Calm - N/A   Overcast
4:53 AM 41.0 °F - 39.9 °F 96% 29.67 in 10.0 mi Calm Calm - N/A   Overcast
5:53 AM 39.9 °F - 39.0 °F 97% 29.68 in 10.0 mi Calm Calm - N/A   Overcast
6:53 AM 39.0 °F - 37.9 °F 96% 29.70 in 10.0 mi Calm Calm - N/A   Overcast
7:02 AM 39.0 °F - 37.9 °F 96% 29.68 in 10.0 mi Calm Calm - N/A   Overcast
7:17 AM 39.0 °F - 37.9 °F 96% 29.68 in 10.0 mi Calm Calm - N/A   Scattered Clouds
7:25 AM 39.0 °F - 37.9 °F 96% 29.68 in 2.0 mi Calm Calm - N/A   Mostly Cloudy
7:32 AM 39.0 °F - 37.9 °F 96% 29.69 in 1.5 mi Calm Calm - N/A   Mostly Cloudy
7:35 AM 39.0 °F - 39.0 °F 100% 29.69 in 3.0 mi Calm Calm - N/A   Mostly Cloudy
7:53 AM 41.0 °F - 39.9 °F 96% 29.71 in 6.0 mi Calm Calm - N/A   Overcast
8:00 AM 42.1 °F - 41.0 °F 96% 29.69 in 1.5 mi Calm Calm - N/A   Overcast
8:07 AM 42.1 °F - 42.1 °F 100% 29.70 in 0.2 mi Calm Calm - N/A Fog Fog
8:24 AM 44.1 °F - 43.0 °F 96% 29.70 in 1.0 mi Calm Calm - N/A   Mist
8:30 AM 44.1 °F - 43.0 °F 96% 29.70 in 3.0 mi Calm Calm - N/A   Overcast
8:53 AM 46.0 °F - 44.1 °F 93% 29.72 in 10.0 mi Calm Calm - N/A   Overcast
9:53 AM 48.0 °F - 44.1 °F 86% 29.72 in 10.0 mi Calm Calm - N/A   Overcast
10:17 AM 48.9 °F - 45.0 °F 86% 29.71 in 10.0 mi Calm Calm - N/A   Scattered Clouds
10:53 AM 51.1 °F - 44.1 °F 77% 29.73 in 10.0 mi Calm Calm - N/A   Clear
12:53 PM 53.1 °F - 46.9 °F 80% 29.74 in 10.0 mi Calm Calm - 0.03 in   Overcast
1:53 PM 57.0 °F - 39.0 °F 51% 29.74 in 10.0 mi Calm Calm - N/A   Mostly Cloudy
2:53 PM 57.9 °F - 37.9 °F 47% 29.75 in 10.0 mi Calm Calm - N/A   Overcast
4:53 PM 57.9 °F - 39.9 °F 51% 29.75 in 10.0 mi Calm Calm - 0.00 in   Partly Cloudy
5:53 PM 59.0 °F - 39.0 °F 48% 29.75 in 10.0 mi Calm Calm - N/A   Clear
6:53 PM 57.9 °F - 41.0 °F 53% 29.75 in 10.0 mi Calm Calm - N/A   Clear
7:53 PM 55.0 °F - 45.0 °F 69% 29.77 in 10.0 mi Calm Calm - N/A   Clear
8:53 PM 50.0 °F - 45.0 °F 83% 29.78 in 10.0 mi Calm Calm - N/A   Clear
9:53 PM 41.0 °F - 39.0 °F 93% 29.80 in 10.0 mi Calm Calm - N/A   Clear
10:53 PM 37.0 °F - 36.0 °F 96% 29.81 in 10.0 mi Calm Calm - N/A   Clear
11:53 PM 34.0 °F 31.0 °F 33.1 °F 96% 29.83 in 10.0 mi WSW 3.5 mph - N/A   Clear